Regional Weather Roundup
Issued by NWS Green Bay, WI

Home | Current Version | Previous Version | Graphics & Text | Print | Product List | Glossary Off
Versions: 1 2 3 4 5 6 7 8 9 10 11 12 13 14 15 16 17 18 19 20 21 22 23 24 25 26 27 28 29 30 31 32 33 34 35 36 37 38 39 40 41 42 43 44 45 46 47 48 49 50

000
ASUS43 KGRB 282259
RWRGRB

NORTH-CENTRAL AND NORTHEAST WISCONSIN REGIONAL WEATHER ROUNDUP
NATIONAL WEATHER SERVICE GREEN BAY WI
600 PM CDT MON JUL 28 2014

WIZ005-009-010>012-018-019-290000-
NORTH CENTRAL WISCONSIN

CITY           SKY/WX    TMP DP  RH WIND       PRES   REMARKS
IRONWOOD       NOT AVBL
MANITOWISH WTR NOT AVBL
ARBOR VITAE    NOT AVBL
EAGLE RIVER    NOT AVBL
LAND O LAKES   NOT AVBL
RHINELANDER    CLOUDY    67  52  58 VRB7      30.10F
PHILLIPS       NOT AVBL
ANTIGO         NOT AVBL
TOMAHAWK       NOT AVBL
MERRILL        NOT AVBL
$$

WIZ013-073-290000-
NORTHEAST WISCONSIN

CITY           SKY/WX    TMP DP  RH WIND       PRES   REMARKS
IRON MOUNTAIN  PTSUNNY   69  49  48 NW9       30.04S
MARINETTE      CLOUDY    68  55  64 SW5       30.03S
$$

WIZ017-030-035>037-045-290000-
CENTRAL WISCONSIN

CITY           SKY/WX    TMP DP  RH WIND       PRES   REMARKS
MEDFORD        NOT AVBL
WAUSAU         CLOUDY    70  50  49 NW13      30.08S
MOSINEE        NOT AVBL
MARSHFIELD     PTSUNNY   72  53  51 NW13      30.10F
WISC RAPIDS    SUNNY     73  52  47 NW14      30.10F
STEVENS POINT  NOT AVBL
WAUPACA        NOT AVBL
SHAWANO        CLOUDY    71  52  51 NW5       30.06F
CLINTONVILLE   CLOUDY    70  48  46 N5        30.06S
$$

WIZ038-039-048-051-290000-
FOX VALLEY

CITY           SKY/WX    TMP DP  RH WIND       PRES   REMARKS
NWS GREEN BAY  CLOUDY    70  53  54 N7        30.05S
APPLETON       PTSUNNY   70  48  46 N10       30.07R
OSHKOSH        PTSUNNY   73  52  47 N13       30.05S
FOND DU LAC    CLOUDY    73  50  44 N15       30.06S
$$

WIZ022-050-052-290000-
EAST CENTRAL WISCONSIN

CITY           SKY/WX    TMP DP  RH WIND       PRES   REMARKS
STURGEON BAY   PTSUNNY   64  50  59 SW7       30.05F
MANITOWOC      NOT AVBL
SHEBOYGAN      PTSUNNY   63  49  60 E6        30.06F
$$

LMZ563-521-522-541>543-290000-
LAKESHORE

STATION/POSITION TIME  TEMP    WIND        PRES    VSBY  WAVE
                       AIR SEA DIR/SP/G                  HT/PER
                 (UTC) (F)     (DEG/KT/KT) (MB)    (MI)  (FT/S)
SHEBOYGAN LKSHOR 2200   58      CALM  /  2 1018.5F
KEWAUNEE LKSHORE 2200   54     180/  5/  6 1018.5F
TWO RIVERS CG    2200   56 64                N/A       6   0
NORTHPORT PIER   2200   66     130/  3/  5 1016.6F
N MID LAKE BUOY  2200   55 53  190/  8/  8 1016.4F         1
S GREEN BAY BUOY 2200   67 67  240/  6     1018.1F
CHAMBERS ISLAND  2200   66     200/  4/  9 1016.9F
MENOMINEE LKSHOR 2200   65     180/  6/  7 1017.7F
$$


USA.gov is the U.S. government's official web portal to all federal, state and local government web resources and services.